Regional Weather Roundup
Issued by NWS

Home | Current Version | Previous Version | Text Only | Print | Product List | Glossary On
Versions: 1 2 3 4 5 6 7 8 9 10 11 12 13 14 15 16 17 18 19 20 21 22 23 24 25 26 27 28 29 30 31 32 33 34 35 36 37 38 39 40 41 42 43 44 45 46 47 48 49 50
000
ASUS43 KFSD 222210
RWRSD

WEATHER ROUNDUP FOR SOUTH DAKOTA
NATIONAL WEATHER SERVICE SIOUX FALLS SD
500 PM CDT THU JUN 22 2017

NOTE: "FAIR" INDICATES FEW OR NO CLOUDS BELOW 12,000 FEET WITH NO
SIGNIFICANT WEATHER AND/OR OBSTRUCTIONS TO VISIBILITY.


SDZ001>005-009-010-012>017-222300-
NORTHWEST AND NORTH CENTRAL SOUTH DAKOTA

CITY           SKY/WX    TMP DP  RH WIND       PRES   REMARKS
BUFFALO          N/A     73  32  22 NW28G37   29.87R
FAITH            N/A     78  36  21 NW17G25   29.88S
MOBRIDGE       SUNNY     82  34  17 NW18G31   29.80S
$$

SDZ012>016-024>037-041>051-057-063-072>074-222300-
SOUTHWEST AND SOUTH CENTRAL SOUTH DAKOTA

CITY           SKY/WX    TMP DP  RH WIND       PRES   REMARKS
RAPID CTY ARPT MOSUNNY   78  40  25 N17G29    29.92F
PIERRE         SUNNY     77  45  32 W7        29.83S
CUSTER         MOSUNNY   67  38  34 E13G20    30.01S
ELLSWORTH AFB  SUNNY     76  38  25 N14G30    29.91F
PHILIP         SUNNY     81  42  25 N8G24     29.86S
PINE RIDGE     SUNNY     78  45  30 N12G21    29.91S
SPEARFISH      FAIR      70  37  30 NW7G14    29.98R
WINNER         FAIR      77  47  34 N12       29.85R
$$

SDZ004>011-016>023-039-040-222300-
NORTHEAST SOUTH DAKOTA

CITY           SKY/WX    TMP DP  RH WIND       PRES   REMARKS
ABERDEEN       MOSUNNY   79  47  32 NW17G23   29.78S
WATERTOWN      SUNNY     72  55  55 S7        29.81S
BROOKINGS      MOSUNNY   71  47  42 N10       29.81S
SISSETON         N/A     78  46  32 W13       29.75F
$$

SDZ017-020-022-023-036>040-048>070-222300-
SOUTHEAST SOUTH DAKOTA

CITY           SKY/WX    TMP DP  RH WIND       PRES   REMARKS
SIOUX FALLS    CLOUDY    72  64  76 N13       29.77S
HURON          SUNNY     76  54  46 N7        29.81F
CHAMBERLAIN    MOSUNNY   78  51  38 NW8       29.83S
MITCHELL       CLOUDY    74  52  46 N14       29.81R
YANKTON        CLOUDY    74  64  71 N17       29.75
$$

ABBREVIATIONS USED IN REMARKS
   TC - TEMPERATURE IN CELSIUS
  WCI - WIND CHILL INDEX
   HX - HEAT INDEX
  VSB - VISIBILITY




USA.gov is the U.S. government's official web portal to all federal, state and local government web resources and services.